Flag for Italy Weather past 2 weeks in Cagliari, Italy

Now
75 °F

Fog.


Feels Like: 73 °F
Forecast: 74 / 91 °F
Wind: 2 mph from Northeast

Location: Cagliari / Elmas

Current Time: Sep 21, 2014 at 12:25:59 AM

Latest Report: Sep 20, 2014 at 11:50 PM


Visibility: 4 mi

Pressure: 30.04 "Hg

Humidity: 100%

Dew point: 75 °F

Location of CagliariLocation

Historic Weather in Cagliari — Graph

°F

Cagliari temperature yesterday

Maximum temperature yesterday: 91 °F (at 12:20 PM)
Minimum temperature yesterday: 75 °F (at 4:50 AM)
Average temperature yesterday: 81 °F

Past Weeks' High & Low Weather Summary

 TemperatureHumidityPressure
High91 °F (Sep 20, 12:20 PM)100% (Sep 7, 6:50 AM)30.07 "Hg (Sep 7, 6:50 AM)
Low64 °F (Sep 11, 5:20 AM)29% (Sep 13, 2:20 PM)29.80 "Hg (Sep 18, 5:20 AM)
Average77 °F77%29.93 "Hg
* Reported Sep 5 10:20 PM — Sep 20 10:50 PM, Cagliari, Weather by CustomWeather, © 2014

Note: Actual official high and low records may vary slightly from our data, if they occured in-between our weather recording intervals... More about our weather records

Advertising

Cagliari weather history for previous 24 hours

 ConditionsComfort  
Time TempWeatherWind HumidityBarometerVisibility
10:50 PM
Sep 20
77 °FFog.1 mph100%30.07 "Hg4 mi
10:20 PM77 °FClear.1 mph100%30.07 "Hg4 mi
9:50 PM77 °FClear.5 mph100%30.07 "Hg4 mi
9:20 PM79 °FPassing clouds.3 mph94%30.07 "Hg4 mi
8:50 PM79 °FPassing clouds.5 mph94%30.04 "Hg4 mi
8:20 PM79 °FScattered clouds.5 mph94%30.04 "Hg4 mi
7:50 PM79 °FScattered clouds.5 mph94%30.04 "Hg4 mi
3:20 PM86 °FSunny.13 mph66%30.01 "Hg10 mi
2:50 PM84 °FSunny.13 mph70%30.01 "Hg10 mi
2:20 PM88 °FSunny.13 mph62%30.01 "Hg10 mi
1:50 PM90 °FSunny.12 mph59%30.01 "Hg10 mi
1:20 PM88 °FPassing clouds.12 mph62%30.01 "HgN/A
12:50 PM91 °FPassing clouds.6 mph46%30.04 "HgN/A
12:20 PM91 °FPassing clouds.5 mph49%30.04 "HgN/A
11:50 AM88 °FSunny.7 mph59%30.04 "Hg10 mi
11:20 AM86 °FPassing clouds.5 mph66%30.04 "HgN/A
10:50 AM86 °FSunny.3 mph70%30.04 "Hg10 mi
10:20 AM86 °FSunny.2 mph66%30.04 "Hg10 mi
9:50 AM84 °FPassing clouds.5 mph70%30.04 "HgN/A
9:20 AM82 °FPassing clouds.3 mph84%30.04 "HgN/A
8:50 AM79 °FClear.3 mph94%30.04 "Hg6 mi
8:20 AM77 °FClear.2 mph94%30.01 "Hg6 mi
7:50 AM75 °FClear.2 mph94%30.01 "Hg6 mi
7:20 AM75 °FPassing clouds.3 mph94%30.01 "Hg5 mi
6:50 AM77 °FPassing clouds.2 mph89%30.01 "Hg5 mi
6:20 AM77 °FPassing clouds.3 mph94%30.01 "Hg5 mi
5:50 AM75 °FPassing clouds.5 mph94%30.01 "Hg5 mi
5:20 AM75 °FPassing clouds.6 mph100%30.01 "Hg5 mi
4:50 AM75 °FPassing clouds.3 mph100%30.01 "Hg5 mi
4:20 AM77 °FPassing clouds.3 mph94%30.01 "Hg4 mi
3:50 AM77 °FPassing clouds.6 mph94%30.01 "Hg4 mi
3:20 AM77 °FPassing clouds.8 mph100%30.01 "Hg4 mi
2:50 AM77 °FPassing clouds.5 mph100%30.01 "Hg4 mi
1:50 AM79 °FPassing clouds.6 mph94%30.01 "Hg4 mi
1:20 AM79 °FPassing clouds.7 mph94%30.01 "Hg4 mi
12:50 AM79 °FPassing clouds.7 mph94%30.07 "Hg4 mi
12:20 AM79 °FPassing clouds.8 mph94%30.04 "Hg4 mi
Weather by CustomWeather, © 2014

See weather overviewHow to use our weather pages